| time (UTC) | temp F | wind direction | speed MPH | gust MPH | rain 1hr in | rain 24hr in | rain mn in | humidity % | barometer mb |
| 20260506033043 | 76 | 167 | 5.0 | 10.0 | 0.00 | 0.00 | 0.00 | 87 | 1007.5 |
| 20260506031541 | 76 | 166 | 4.0 | 10.0 | 0.00 | 0.00 | 0.00 | 86 | 1007.5 |
| 20260506030040 | 76 | 179 | 5.0 | 12.0 | 0.00 | 0.00 | 0.00 | 85 | 1007.3 |
| 20260506024546 | 77 | 158 | 5.0 | 8.0 | 0.00 | 0.00 | 0.00 | 84 | 1006.9 |
| 20260506023043 | 77 | 164 | 5.0 | 10.0 | 0.00 | 0.00 | 0.00 | 83 | 1007.0 |
| 20260506021552 | 78 | 149 | 5.0 | 13.0 | 0.00 | 0.00 | 0.00 | 83 | 1006.6 |
| 20260506020041 | 78 | 155 | 4.0 | 11.0 | 0.00 | 0.00 | 0.00 | 82 | 1006.6 |
| 20260506014541 | 79 | 144 | 2.0 | 8.0 | 0.00 | 0.00 | 0.00 | 79 | 1006.6 |
| 20260506013044 | 79 | 157 | 4.0 | 8.0 | 0.00 | 0.00 | 0.00 | 79 | 1006.4 |
| 20260506011548 | 80 | 141 | 2.0 | 4.0 | 0.00 | 0.00 | 0.00 | 79 | 1006.3 |
| 20260506010048 | 80 | 144 | 2.0 | 4.0 | 0.00 | 0.00 | 0.00 | 78 | 1006.0 |
| 20260506004540 | 81 | 137 | 2.0 | 6.0 | 0.00 | 0.00 | 0.00 | 77 | 1005.9 |
| 20260506003042 | 81 | 134 | 1.0 | 3.0 | 0.00 | 0.00 | 0.00 | 75 | 1005.7 |
| 20260506001541 | 82 | 140 | 2.0 | 7.0 | 0.00 | 0.00 | 0.00 | 74 | 1005.5 |
| 20260506000040 | 83 | 192 | 4.0 | 8.0 | 0.00 | 0.00 | 0.00 | 72 | 1005.6 |
| 20260505234605 | 83 | 153 | 4.0 | 10.0 | 0.00 | 0.00 | 0.00 | 72 | 1005.5 |
| 20260505233047 | 83 | 165 | 6.0 | 12.0 | 0.00 | 0.00 | 0.00 | 71 | 1005.4 |
| 20260505231542 | 83 | 148 | 6.0 | 14.0 | 0.00 | 0.00 | 0.00 | 72 | 1005.3 |
| 20260505230046 | 83 | 146 | 6.0 | 11.0 | 0.00 | 0.00 | 0.00 | 72 | 1005.3 |
| 20260505224541 | 84 | 192 | 5.0 | 11.0 | 0.00 | 0.00 | 0.00 | 71 | 1005.4 |
| 20260505223046 | 84 | 135 | 6.0 | 11.0 | 0.00 | 0.00 | 0.00 | 71 | 1005.4 |
| 20260505221543 | 83 | 194 | 6.0 | 12.0 | 0.00 | 0.00 | 0.00 | 72 | 1005.5 |
| 20260505220046 | 83 | 169 | 8.0 | 13.0 | 0.00 | 0.00 | 0.00 | 71 | 1005.6 |
| 20260505214552 | 83 | 184 | 6.0 | 15.0 | 0.00 | 0.00 | 0.00 | 71 | 1005.8 |
| 20260505213042 | 83 | 161 | 7.0 | 12.0 | 0.00 | 0.00 | 0.00 | 71 | 1005.9 |
| 20260505211549 | 83 | 169 | 7.0 | 14.0 | 0.00 | 0.00 | 0.00 | 71 | 1006.0 |
| 20260505210041 | 84 | 190 | 9.0 | 17.0 | 0.00 | 0.00 | 0.00 | 69 | 1006.2 |
| 20260505204540 | 82 | 170 | 7.0 | 11.0 | 0.00 | 0.00 | 0.00 | 72 | 1006.6 |
| 20260505203052 | 82 | 153 | 7.0 | 13.0 | 0.00 | 0.00 | 0.00 | 72 | 1006.7 |
| 20260505201542 | 82 | 184 | 7.0 | 12.0 | 0.00 | 0.00 | 0.00 | 72 | 1006.9 |
| 20260505200040 | 81 | 194 | 8.0 | 18.0 | 0.00 | 0.00 | 0.00 | 74 | 1007.1 |
| 20260505194544 | 81 | 192 | 7.0 | 13.0 | 0.00 | 0.00 | 0.00 | 75 | 1007.3 |
| 20260505193042 | 80 | 158 | 6.0 | 14.0 | 0.00 | 0.00 | 0.00 | 77 | 1007.5 |
| 20260505191550 | 80 | 182 | 7.0 | 11.0 | 0.00 | 0.00 | 0.00 | 78 | 1007.9 |
| 20260505190043 | 79 | 186 | 8.0 | 12.0 | 0.00 | 0.00 | 0.00 | 78 | 1007.9 |
| 20260505184548 | 79 | 175 | 7.0 | 12.0 | 0.00 | 0.00 | 0.00 | 77 | 1008.0 |
| 20260505183043 | 78 | 231 | 7.0 | 12.0 | 0.00 | 0.00 | 0.00 | 79 | 1008.1 |
| 20260505181543 | 78 | 183 | 8.0 | 12.0 | 0.00 | 0.00 | 0.00 | 80 | 1008.3 |
| 20260505180053 | 77 | 211 | 6.0 | 12.0 | 0.00 | 0.00 | 0.00 | 81 | 1008.5 |
| 20260505174542 | 76 | 234 | 7.0 | 10.0 | 0.00 | 0.00 | 0.00 | 83 | 1008.8 |
| 20260505173040 | 76 | 227 | 8.0 | 15.0 | 0.00 | 0.00 | 0.00 | 84 | 1008.7 |
| 20260505171540 | 75 | 211 | 7.0 | 13.0 | 0.00 | 0.00 | 0.00 | 85 | 1008.8 |
| 20260505170038 | 74 | 220 | 6.0 | 10.0 | 0.00 | 0.00 | 0.00 | 86 | 1009.0 |
| 20260505164542 | 74 | 202 | 6.0 | 10.0 | 0.00 | 0.00 | 0.00 | 87 | 1009.0 |
| 20260505163042 | 74 | 186 | 5.0 | 11.0 | 0.00 | 0.00 | 0.00 | 87 | 1008.9 |
| 20260505161543 | 73 | 229 | 6.0 | 10.0 | 0.00 | 0.00 | 0.00 | 87 | 1009.0 |
| 20260505153050 | 72 | 216 | 5.0 | 10.0 | 0.00 | 0.00 | 0.00 | 91 | 1009.0 |
| 20260505151545 | 71 | 204 | 5.0 | 11.0 | 0.00 | 0.00 | 0.00 | 92 | 1008.8 |
| 20260505124548 | 71 | 176 | 8.0 | 14.0 | 0.00 | 0.00 | 0.00 | 89 | 1007.8 |
| 20260505123045 | 71 | 204 | 5.0 | 11.0 | 0.00 | 0.00 | 0.00 | 89 | 1007.6 |
| 20260505121548 | 71 | 194 | 5.0 | 12.0 | 0.00 | 0.00 | 0.00 | 89 | 1007.6 |
| 20260505120040 | 71 | 180 | 5.0 | 12.0 | 0.00 | 0.00 | 0.00 | 89 | 1007.2 |
| 20260505114540 | 71 | 186 | 6.0 | 11.0 | 0.00 | 0.00 | 0.00 | 89 | 1007.4 |
| 20260505113042 | 70 | 171 | 5.0 | 12.0 | 0.00 | 0.00 | 0.00 | 89 | 1007.3 |
| 20260505111545 | 70 | 193 | 7.0 | 14.0 | 0.00 | 0.00 | 0.00 | 88 | 1007.3 |
| 20260505101545 | 70 | 195 | 8.0 | 16.0 | 0.00 | 0.00 | 0.00 | 88 | 1007.7 |
| 20260505100043 | 70 | 187 | 8.0 | 14.0 | 0.00 | 0.00 | 0.00 | 89 | 1007.5 |
| 20260505094545 | 69 | 196 | 6.0 | 12.0 | 0.00 | 0.00 | 0.00 | 90 | 1007.6 |
| 20260505093051 | 69 | 180 | 5.0 | 11.0 | 0.00 | 0.00 | 0.00 | 90 | 1007.4 |
| 20260505091544 | 69 | 211 | 8.0 | 12.0 | 0.00 | 0.00 | 0.00 | 90 | 1007.6 |
| 20260505090042 | 69 | 196 | 6.0 | 13.0 | 0.00 | 0.00 | 0.00 | 90 | 1007.7 |
| 20260505084543 | 69 | 171 | 7.0 | 13.0 | 0.00 | 0.00 | 0.00 | 90 | 1007.7 |
| 20260505083057 | 69 | 172 | 6.0 | 12.0 | 0.00 | 0.00 | 0.00 | 89 | 1008.0 |
| 20260505081540 | 69 | 189 | 8.0 | 16.0 | 0.00 | 0.00 | 0.00 | 89 | 1008.3 |
| 20260505080043 | 69 | 183 | 9.0 | 15.0 | 0.00 | 0.00 | 0.00 | 88 | 1008.3 |
| 20260505074543 | 69 | 174 | 7.0 | 13.0 | 0.00 | 0.00 | 0.00 | 89 | 1008.6 |
| 20260505073043 | 69 | 196 | 8.0 | 20.0 | 0.00 | 0.00 | 0.00 | 88 | 1008.8 |
| 20260505071540 | 69 | 187 | 6.0 | 15.0 | 0.00 | 0.00 | 0.00 | 88 | 1008.8 |
| 20260505070054 | 70 | 235 | 9.0 | 14.0 | 0.00 | 0.00 | 0.00 | 88 | 1008.9 |
| 20260505064550 | 70 | 171 | 6.0 | 16.0 | 0.00 | 0.00 | 0.00 | 88 | 1009.2 |
| 20260505063043 | 69 | 155 | 7.0 | 14.0 | 0.00 | 0.00 | 0.00 | 88 | 1009.4 |
| 20260505061608 | 70 | 198 | 8.0 | 18.0 | 0.00 | 0.00 | 0.00 | 87 | 1009.4 |
| 20260505060051 | 69 | 183 | 7.0 | 15.0 | 0.00 | 0.00 | 0.00 | 87 | 1009.4 |
| 20260505054547 | 69 | 175 | 7.0 | 17.0 | 0.00 | 0.00 | 0.00 | 87 | 1009.3 |
| 20260505053044 | 70 | 175 | 9.0 | 20.0 | 0.00 | 0.00 | 0.00 | 86 | 1009.3 |
| 20260505051542 | 70 | 194 | 6.0 | 15.0 | 0.00 | 0.00 | 0.00 | 86 | 1009.2 |
| 20260505041540 | 71 | 146 | 5.0 | 16.0 | 0.00 | 0.00 | 0.00 | 84 | 1009.6 |
| 20260505040059 | 71 | 132 | 6.0 | 13.0 | 0.00 | 0.00 | 0.00 | 83 | 1009.7 |
| 20260505034544 | 71 | 155 | 5.0 | 15.0 | 0.00 | 0.00 | 0.00 | 83 | 1009.5 |